GW3181 Weather Reports


Display with metric or nautical units.
time (UTC)temp
F
wind
direction
speed
MPH
gust
MPH
rain 1hr
in
rain 24hr
in
rain mn
in
humidity
%
barometer
mb
20260906224058 88 200 0.0 3.0 0.00 0.10 0.03 38 1017.6
20260906223038 88 152 1.0 3.0 0.02 0.10 0.03 37 1017.6
20260906222038 86 208 1.0 3.0 0.03 0.10 0.03 38 1017.9
20260906221038 84 156 0.0 2.0 0.03 0.10 0.03 40 1018.1
20260906220018 83 306 1.0 4.0 0.02 0.10 0.03 43 1018.3
20260906215019 84 265 1.0 3.0 0.02 0.10 0.03 45 1018.3
20260906214019 86 255 1.0 3.0 0.02 0.10 0.03 44 1018.5
20260906213039 88 221 1.0 4.0 0.00 0.08 0.01 34 1018.6
20260906212019 90 106 1.0 4.0 0.00 0.07 0.00 31 1018.7
20260906211019 90 177 1.0 6.0 0.00 0.07 0.00 32 1018.7
20260906210019 88 16 1.0 8.0 0.00 0.07 0.00 35 1018.8
20260906205020 88 264 2.0 6.0 0.00 0.07 0.00 34 1018.9
20260906204039 87 303 2.0 5.0 0.00 0.07 0.00 36 1019.0
20260906203017 87 310 1.0 6.0 0.00 0.07 0.00 36 1019.2
20260906202017 89 25 1.0 4.0 0.00 0.07 0.00 35 1019.3
20260906201020 90 9 1.0 4.0 0.00 0.07 0.00 34 1019.4
20260906200020 89 347 0.0 3.0 0.00 0.07 0.00 35 1019.6
20260906195020 89 22 1.0 5.0 0.00 0.07 0.00 36 1019.7
20260906194018 88 45 1.0 4.0 0.00 0.07 0.00 36 1019.8
20260906193018 88 2 1.0 3.0 0.00 0.07 0.00 37 1020.0
20260906192017 88 37 1.0 3.0 0.00 0.07 0.00 37 1020.2
20260906191020 88 10 1.0 3.0 0.00 0.07 0.00 37 1020.4
20260906190041 87 314 1.0 3.0 0.00 0.07 0.00 38 1020.5
20260906185018 87 305 0.0 2.0 0.00 0.07 0.00 38 1020.7
20260906184038 86 1 1.0 5.0 0.00 0.07 0.00 37 1020.9
20260906183038 84 344 1.0 5.0 0.00 0.07 0.00 39 1021.1
20260906182018 84 52 1.0 5.0 0.00 0.07 0.00 39 1021.3
20260906181018 84 137 1.0 6.0 0.00 0.07 0.00 39 1021.5
20260906180038 83 16 1.0 4.0 0.00 0.07 0.00 39 1021.7
20260906175019 83 42 1.0 5.0 0.00 0.07 0.00 40 1021.8
20260906174018 83 42 1.0 4.0 0.00 0.07 0.00 40 1022.0
20260906173019 82 38 1.0 4.0 0.00 0.07 0.00 40 1022.2
20260906172039 81 1 1.0 4.0 0.00 0.07 0.00 41 1022.4
20260906171019 80 197 1.0 3.0 0.00 0.07 0.00 42 1022.5
20260906170019 79 56 1.0 3.0 0.00 0.07 0.00 43 1022.6
20260906165019 80 3 1.0 3.0 0.00 0.07 0.00 44 1022.8
20260906164039 78 291 0.0 2.0 0.00 0.07 0.00 44 1022.8
20260906163016 77 21 1.0 4.0 0.00 0.07 0.00 45 1022.8
20260906162039 76 321 1.0 2.0 0.00 0.07 0.00 46 1022.8
20260906161020 75 355 1.0 4.0 0.00 0.07 0.00 49 1022.9
20260906160017 75 13 1.0 4.0 0.00 0.07 0.00 48 1022.9
20260906155037 75 11 0.0 2.0 0.00 0.07 0.00 47 1022.8
20260906154037 74 356 1.0 2.0 0.00 0.07 0.00 50 1022.8
20260906153040 73 351 1.0 4.0 0.00 0.07 0.00 50 1022.7
20260906152020 73 4 1.0 3.0 0.00 0.07 0.00 50 1022.9
20260906151017 73 4 1.0 3.0 0.00 0.07 0.00 50 1022.9
20260906150017 72 302 1.0 2.0 0.00 0.07 0.00 49 1022.9
20260906145018 71 348 1.0 4.0 0.00 0.07 0.00 49 1022.8
20260906144017 70 360 1.0 3.0 0.00 0.07 0.00 50 1022.8
20260906143018 70 14 1.0 5.0 0.00 0.07 0.00 51 1022.9
20260906142018 70 10 1.0 3.0 0.00 0.07 0.00 50 1022.8
20260906141018 68 323 0.0 2.0 0.00 0.07 0.00 52 1022.9
20260906140038 67 304 0.0 1.0 0.00 0.07 0.00 55 1022.9
20260906135018 65 349 0.0 1.0 0.00 0.07 0.00 57 1023.0
20260906134018 63 359 0.0 1.0 0.00 0.07 0.00 59 1022.9
20260906133019 63 308 0.0 1.0 0.00 0.07 0.00 60 1022.8
20260906132019 63 47 0.0 2.0 0.00 0.07 0.00 59 1022.6
20260906131019 63 134 0.0 3.0 0.00 0.07 0.00 59 1022.5
20260906130019 62 224 0.0 2.0 0.00 0.07 0.00 60 1022.4
20260906125019 62 272 0.0 2.0 0.00 0.07 0.00 60 1022.3
20260906124016 62 350 0.0 3.0 0.00 0.07 0.00 60 1022.2
20260906123019 63 337 0.0 1.0 0.00 0.07 0.00 59 1022.2
20260906122019 63 358 1.0 3.0 0.00 0.07 0.00 59 1022.2
20260906121020 63 30 0.0 3.0 0.00 0.07 0.00 59 1022.4
20260906120037 63 6 1.0 3.0 0.00 0.07 0.00 60 1022.4
20260906115016 63 23 0.0 3.0 0.00 0.07 0.00 59 1022.4
20260906114016 64 7 1.0 4.0 0.00 0.07 0.00 58 1022.4
20260906113020 64 54 1.0 4.0 0.00 0.07 0.00 59 1022.4
20260906112020 64 57 1.0 3.0 0.00 0.07 0.00 59 1022.3
20260906111018 64 141 1.0 3.0 0.00 0.07 0.00 58 1022.2
20260906110017 64 88 1.0 3.0 0.00 0.07 0.00 58 1022.1
20260906105018 64 138 1.0 4.0 0.00 0.07 0.00 57 1021.9
20260906104017 65 49 0.0 3.0 0.00 0.07 0.00 57 1021.8
20260906103018 65 133 0.0 3.0 0.00 0.07 0.00 56 1021.8
20260906102037 65 140 1.0 3.0 0.00 0.07 0.00 56 1021.8
20260906101038 65 170 0.0 4.0 0.00 0.07 0.00 55 1021.8
20260906100018 66 167 1.0 3.0 0.00 0.07 0.00 55 1021.9
20260906094018 66 153 1.0 4.0 0.00 0.07 0.00 55 1021.7
20260906093018 66 174 1.0 3.0 0.00 0.07 0.00 55 1021.7
20260906092018 66 38 1.0 3.0 0.00 0.07 0.00 55 1021.7
20260906091018 67 360 1.0 5.0 0.00 0.07 0.00 54 1021.8
20260906090019 67 22 1.0 4.0 0.00 0.07 0.00 54 1021.7
20260906085019 67 136 1.0 4.0 0.00 0.07 0.00 54 1021.6
20260906084059 67 154 1.0 4.0 0.00 0.07 0.00 54 1021.5
20260906083019 68 359 0.0 4.0 0.00 0.07 0.00 54 1021.5
20260906082019 68 121 1.0 3.0 0.00 0.07 0.00 53 1021.6
20260906081019 68 143 1.0 5.0 0.00 0.07 0.00 53 1021.5
20260906080019 68 136 1.0 4.0 0.00 0.07 0.00 53 1021.5
20260906075037 68 109 1.0 4.0 0.00 0.07 0.00 54 1021.5
20260906074016 68 95 1.0 4.0 0.00 0.07 0.00 53 1021.5
20260906073020 68 153 1.0 4.0 0.00 0.07 0.00 53 1021.5
20260906072020 68 168 1.0 3.0 0.00 0.07 0.00 53 1021.5
20260906071017 67 128 1.0 3.0 0.00 0.07 0.00 54 1021.6
20260906070017 66 71 1.0 4.0 0.00 0.07 0.00 55 1021.5
20260906065017 65 341 0.0 2.0 0.00 0.07 0.00 58 1021.6
20260906064020 65 16 0.0 2.0 0.00 0.07 0.00 60 1021.7
20260906063020 65 282 0.0 1.0 0.00 0.07 0.00 61 1021.8
20260906062037 66 258 0.0 2.0 0.00 0.07 0.00 58 1021.9
20260906061017 66 268 0.0 1.0 0.00 0.07 0.00 60 1021.9
20260906060018 66 212 0.0 2.0 0.02 0.07 0.00 60 1022.0
20260906055018 66 223 0.0 1.0 0.06 0.07 0.07 64 1022.0
20260906054018 66 202 1.0 3.0 0.06 0.07 0.07 64 1021.9
20260906053018 65 226 0.0 2.0 0.06 0.07 0.07 67 1022.0
20260906052018 66 215 0.0 2.0 0.06 0.07 0.07 72 1022.0
20260906051019 69 211 0.0 2.0 0.06 0.07 0.07 74 1022.2
20260906050059 73 266 1.0 2.0 0.04 0.05 0.05 60 1022.3
20260906045019 74 253 0.0 1.0 0.00 0.01 0.01 41 1022.0
20260906044019 74 235 0.0 2.0 0.00 0.01 0.01 40 1022.2
20260906043039 75 246 0.0 1.0 0.00 0.01 0.01 38 1022.2
20260906042019 75 242 1.0 2.0 0.00 0.01 0.01 37 1022.1
20260906041019 74 234 1.0 3.0 0.00 0.01 0.01 37 1021.9
20260906040016 74 229 0.0 2.0 0.00 0.01 0.01 37 1021.8
20260906035019 73 247 1.0 2.0 0.00 0.01 0.01 37 1021.8
20260906034020 72 190 1.0 3.0 0.00 0.01 0.01 40 1021.6
20260906033020 72 187 0.0 1.0 0.00 0.01 0.01 40 1021.2
20260906032039 73 174 0.0 2.0 0.00 0.01 0.01 39 1021.0
20260906031017 74 212 0.0 1.0 0.00 0.01 0.01 38 1020.9
20260906030017 74 233 0.0 2.0 0.00 0.01 0.01 37 1020.7
20260906025020 74 207 0.0 2.0 0.00 0.01 0.01 37 1020.6
20260906024021 75 222 0.0 2.0 0.00 0.01 0.01 36 1020.6
20260906023017 75 238 1.0 3.0 0.00 0.01 0.01 36 1020.5
20260906022018 75 263 0.0 2.0 0.00 0.01 0.01 36 1020.5
20260906021018 75 293 0.0 1.0 0.00 0.01 0.01 36 1020.3
20260906020018 76 260 1.0 2.0 0.00 0.01 0.01 36 1020.1
20260906015018 77 210 0.0 2.0 0.00 0.01 0.01 34 1020.0
20260906014018 78 226 0.0 2.0 0.01 0.01 0.01 33 1019.9
20260906013018 78 226 0.0 2.0 0.01 0.01 0.01 32 1019.8
20260906012018 79 234 0.0 2.0 0.01 0.01 0.01 33 1019.8
20260906011018 80 237 0.0 1.0 0.01 0.01 0.01 33 1019.8
20260906010039 81 236 0.0 2.0 0.01 0.01 0.01 32 1019.8
20260906005039 82 249 1.0 2.0 0.01 0.01 0.01 31 1019.9
20260906004019 84 242 0.0 2.0 0.01 0.01 0.01 30 1019.9
20260906003039 84 217 0.0 3.0 0.00 0.00 0.00 29 1019.9
20260906002019 85 204 1.0 3.0 0.00 0.00 0.00 27 1019.8
20260906001019 86 184 1.0 4.0 0.00 0.00 0.00 27 1019.8
20260906000017 86 171 1.0 4.0 0.00 0.00 0.00 26 1019.7
20260905235039 87 205 2.0 7.0 0.00 0.00 0.00 25 1019.6
20260905234019 88 180 2.0 6.0 0.00 0.00 0.00 25 1019.6
20260905233020 89 225 1.0 2.0 0.00 0.00 0.00 25 1019.5
20260905232037 89 173 0.0 1.0 0.00 0.00 0.00 26 1019.7
20260905231016 90 180 1.0 4.0 0.00 0.00 0.00 25 1019.6
20260905230017 90 44 0.0 2.0 0.00 0.00 0.00 24 1019.6
20260905225020 90 219 1.0 3.0 0.00 0.00 0.00 25 1019.6